Weather in Al Hoceima

Morocco     35°14′40″N   3°55′38″W
temp.,
°C
wind,
m/s
gust,
m/s
humid.,
%
clouds,
%
prec.,
mm/h
press.,
hPa
HPBL,
m
17 april, sat
sat1700:00+15e21792 0.0 1017250
03:00+14ene11804 0.0 1017262
06:00+14s01805 0.0 1017212
09:00+15nnw21760 0.0 1018301
12:00+16n22740 0.0 1018296
15:00+16n22720 0.0 1017289
18:00+17sw12610 0.0 1016274
21:00+17sw11700 0.0 101812
18 april, sun
sun1800:00+17ene11714 0.0 101811
03:00+16n11736 0.0 101712
06:00+16sw0077100 0.0 101810
09:00+17nne2169100 0.0 1019135
12:00+17nne3270100 0.0 1019287
15:00+17ne2169100 0.0 1019244
18:00+17ne227386 0.0 1019125
21:00+17e22755 0.0 102128
19 april, mon
mon1900:00+16ene337810 0.0 102069
03:00+16ene228275 0.0 101875
06:00+16nnw018233 0.0 101863
09:00+16nw11750 0.0 1019255
12:00+17nnw337362 0.0 1018318
15:00+17nw23706 0.0 1016350
18:00+18sw2464100 0.0 1016316
21:00+19wsw3363100 0.0 101718
20 april, tue
tue2000:00+17wnw337498 0.0 101636
03:00+17wnw34785 0.0 101477
06:00+16wsw22767 0.0 101452
09:00+17nw567040 0.0 1015415
12:00+17nw7878100 0.0 1015513
15:00+18wnw6971100 0.0 1013560
18:00+18w71071100 0.0 1014489
21:00+17w57745 0.0 1015228
21 april, wed
wed2100:00+16w23770 0.0 1014108
03:00+16wnw237842 0.0 1013105
06:00+16s227399 0.0 101359
09:00+18nw11635 0.0 1014244
12:00+17nnw56725 0.0 1014516
15:00+17nnw2370100 0.0 1013434
18:00+17wnw126884 0.0 1013310
21:00+17nw127598 0.0 101515